Theta_e
306 306 307 307 307 308 306 308 308 309 310 310 309 308 309 314 315 307 305 309 306 300 302 306 307 301 300 299 295 299 299 300 299 294 294 293 293 296 297 301 298 294 291 290 293 288 286 304 303 294 297 299 300 299
306 306 306 307 307 307 307 307 308 308 309 310 308 308 309 314 315 310 302 312 313 304 301 307 308 309 306 306 300 299 299 300 301 297 296 297 296 297 294 289 302 291 295 291 291 290 298 300 298 300 299 296 296 295
306 306 306 306 306 306 307 309 309 310 310 309 308 308 310 314 315 311 304 307 307 302 300 301 302 308 309 309 307 297 301 304 302 305 299 297 293 295 290 292 295 299 300 294 294 297 299 300 300 299 299 296 297 297
305 306 305 306 306 306 307 308 309 308 308 308 307 309 312 313 314 313 305 309 306 302 294 298 308 304 310 308 306 305 305 303 305 303 297 296 294 297 293 295 294 297 296 294 294 297 299 300 299 298 298 298 297 297
305 305 305 305 306 306 306 307 309 308 308 309 309 311 313 314 313 309 306 308 305 302 295 297 302 304 306 305 305 304 303 302 300 299 295 294 297 296 295 294 291 296 293 290 290 298 297 296 298 299 297 296 296 296
304 304 304 304 305 306 306 306 308 309 308 309 310 313 313 313 312 305 300 305 302 305 298 292 299 301 305 305 304 302 303 302 300 298 297 298 300 295 289 288 296 298 300 299 297 301 299 299 299 299 297 296 297 296
304 304 304 304 304 305 305 306 308 310 309 310 312 313 313 312 307 301 299 301 303 304 298 292 293 301 305 303 301 300 300 300 299 297 296 296 296 293 289 287 297 299 301 302 303 301 297 298 295 298 298 299 298 298
305 304 304 304 304 305 304 306 309 310 310 312 312 310 308 307 306 305 303 304 305 301 298 290 293 297 301 297 296 300 297 297 297 297 296 295 295 293 287 294 299 302 302 301 301 300 298 298 297 296 297 296 296 296
303 304 304 304 304 304 304 308 309 310 310 310 310 309 306 303 302 302 309 309 302 300 292 293 290 293 300 299 298 298 298 293 297 293 294 295 292 289 294 297 300 301 300 300 300 299 298 297 296 295 295 294 294 294
302 305 304 304 305 305 304 309 309 309 309 308 305 300 295 299 307 307 301 297 296 296 295 291 295 293 298 297 295 294 294 291 289 293 296 292 290 298 301 302 302 302 302 301 297 295 296 295 294 294 293 295 295 296
302 303 304 304 304 305 304 305 307 307 306 302 297 295 300 306 302 299 293 291 292 289 292 293 294 294 301 294 295 298 292 292 288 291 293 289 289 297 302 301 300 301 300 299 298 297 296 296 295 294 295 298 297 293
301 303 304 303 304 305 304 303 303 302 301 301 300 303 302 299 295 289 289 291 291 288 293 292 294 296 299 301 295 295 291 293 288 295 294 288 294 300 301 300 300 300 299 298 299 297 297 296 296 296 297 297 294 295
301 303 303 303 303 304 305 305 305 304 304 303 299 296 293 292 286 287 285 287 286 291 294 297 294 296 298 297 293 293 290 289 295 290 289 291 298 301 303 301 300 301 300 299 298 298 298 297 299 299 297 298 295 296
300 301 301 302 303 303 303 302 302 301 301 297 294 286 288 286 288 289 290 290 294 298 299 295 294 294 296 295 293 289 292 292 287 284 287 294 298 300 301 301 300 299 300 298 298 298 297 298 299 299 298 296 297 295
298 299 300 301 303 303 303 302 301 299 298 295 296 287 288 294 293 296 297 297 298 299 296 293 293 293 292 292 293 292 288 285 287 286 291 296 299 300 300 300 300 300 299 298 299 297 297 298 298 295 295 297 297 298
299 299 296 302 303 303 303 302 299 299 298 296 293 290 292 293 292 293 293 293 295 294 295 294 290 290 288 290 289 287 287 285 288 294 296 299 298 299 299 300 301 301 299 299 297 297 297 298 297 294 296 297 297 299
299 294 302 302 302 302 302 298 299 296 294 294 291 293 293 293 293 294 293 292 294 294 290 291 287 286 291 287 286 290 287 291 296 297 298 299 299 299 301 302 302 301 300 298 297 296 296 299 295 294 295 296 297 299
295 297 302 303 301 301 299 297 296 295 291 290 288 291 292 294 293 292 293 294 292 292 291 290 292 288 286 286 284 291 293 296 298 299 300 303 302 301 303 301 302 301 300 298 297 296 297 297 293 294 296 295 296 298
296 298 302 302 299 295 295 296 296 289 290 291 291 292 294 294 294 295 295 295 294 293 292 290 288 286 287 291 291 293 293 294 296 299 300 302 301 302 303 303 302 301 299 297 295 294 294 296 293 296 295 294 294 300
300 300 301 301 300 294 294 292 295 290 288 290 292 290 292 292 294 294 293 293 291 289 287 286 287 290 292 294 295 296 295 296 298 299 297 298 302 304 303 303 301 300 299 297 296 294 293 293 294 297 295 294 297 299
298 299 301 298 297 294 293 291 289 290 290 288 290 289 288 292 291 291 291 293 290 288 286 289 290 292 296 295 295 295 296 298 300 297 296 296 300 304 304 305 300 300 298 296 294 293 293 292 293 297 295 294 297 300
297 301 296 297 293 295 290 291 290 291 289 288 288 289 286 285 287 289 291 289 288 288 289 291 293 295 295 295 296 297 302 305 302 299 298 299 300 303 303 302 301 300 299 297 297 295 294 294 295 298 296 296 296 299
299 296 294 296 291 284 283 291 288 289 285 287 288 286 286 286 289 292 287 288 289 291 292 293 295 296 296 299 300 299 304 304 300 300 302 301 300 303 302 303 304 302 300 298 298 297 295 293 295 298 297 296 297 298
299 293 290 289 286 281 291 288 289 288 288 286 286 287 287 288 291 287 285 287 289 292 291 293 294 295 299 301 298 299 299 302 301 298 300 300 300 301 301 303 302 304 304 301 299 296 295 295 294 297 297 297 297 299
284 283 284 276 288 287 287 287 287 286 285 288 288 288 287 291 283 284 283 285 290 291 294 294 293 296 296 298 299 299 301 299 297 294 295 296 295 294 296 298 302 305 306 301 297 297 295 295 295 296 299 297 297 300
279 285 281 286 286 286 288 285 286 285 287 287 288 288 289 283 283 282 287 291 291 293 295 295 294 296 297 299 298 296 297 299 299 297 297 299 298 295 293 296 298 300 305 304 300 298 296 296 295 296 297 297 292 299
275 284 287 291 290 290 286 288 289 285 287 287 286 288 285 279 280 289 292 296 294 294 296 298 296 295 295 296 298 298 300 300 299 298 299 300 300 301 301 298 297 302 305 304 303 301 299 298 297 297 296 298 299 301
287 289 286 288 288 290 287 287 287 287 286 290 287 285 280 281 280 290 292 294 296 294 294 296 297 296 296 296 296 297 297 298 299 299 299 299 300 301 301 302 302 293 307 307 305 302 301 300 299 298 297 297 298 302
286 288 289 287 289 288 289 289 288 290 292 286 282 281 282 290 293 291 293 293 294 293 292 292 294 295 294 295 296 297 297 296 294 291 292 294 294 297 300 301 302 302 305 303 292 298 302 301 300 300 299 297 299 300
287 289 286 289 288 288 289 292 290 291 291 289 288 286 285 290 295 298 295 293 292 293 294 292 291 291 290 290 291 293 295 296 297 296 294 294 296 298 300 300 301 302 300 303 302 296 288 296 293 299 298 297 297 298
289 290 287 287 288 291 292 291 289 289 290 287 289 287 286 287 290 293 296 297 294 292 291 293 292 291 291 290 290 289 290 294 296 298 299 299 299 299 300 301 301 302 303 301 301 302 299 298 298 298 298 296 297 297
288 289 288 286 286 290 291 290 288 288 287 287 286 288 289 289 287 292 296 298 296 294 290 290 290 291 293 294 293 295 291 293 294 295 297 297 298 299 300 300 301 303 303 301 302 303 301 300 299 298 297 297 297 298
290 290 290 289 286 284 289 288 288 288 288 288 290 290 289 289 289 294 297 298 296 293 292 291 291 291 292 293 295 294 291 295 294 289 289 288 287 289 293 298 301 303 302 300 302 302 300 299 299 298 298 297 297 297
Wind_Speed
6 7 7 8 10 11 15 13 16 14 13 13 11 10 8 7 6 1 5 3 4 1 6 2 5 5 4 3 2 5 5 5 4 3 1 3 3 2 4 0 4 2 3 1 3 2 3 2 2 3 3 6 6 6
7 8 8 7 8 10 11 17 17 13 12 11 10 9 8 7 6 2 3 3 1 3 7 4 6 5 4 7 5 2 4 2 2 2 1 1 2 3 1 2 5 1 6 5 5 5 1 3 3 6 7 7 3 5
7 5 5 7 8 11 12 15 9 9 11 11 10 10 9 7 5 3 2 4 3 2 5 4 3 4 5 4 5 4 3 2 2 3 3 2 1 3 1 3 2 3 2 4 5 2 5 7 4 7 8 9 7 6
2 2 5 7 9 10 11 14 9 7 6 5 8 8 8 6 4 3 2 2 2 1 2 7 3 4 2 5 4 5 5 3 1 3 1 1 1 3 4 4 3 5 3 5 4 4 7 4 6 9 9 8 8 7
1 3 5 8 9 10 11 12 9 6 5 5 8 8 7 6 5 2 2 2 1 5 2 5 8 6 6 6 5 4 4 3 2 2 1 3 2 3 2 3 2 1 6 5 6 7 5 3 6 7 9 7 6 7
1 2 5 8 9 10 8 12 11 7 7 8 8 8 7 5 3 1 3 2 4 2 3 3 5 4 4 5 5 4 3 2 3 3 3 3 2 4 3 1 3 2 4 3 6 4 9 9 6 4 8 7 6 6
3 1 4 8 10 10 11 13 12 7 8 8 8 8 6 4 2 3 5 3 5 1 3 4 5 6 5 3 1 1 2 2 3 2 2 2 2 4 3 3 6 4 6 8 11 13 8 4 6 6 10 8 7 5
3 2 4 7 9 9 13 16 8 7 7 9 11 11 9 8 6 2 3 5 5 3 3 1 5 4 2 2 1 2 1 2 2 3 2 1 3 3 0 3 6 7 8 8 8 6 8 9 7 7 6 5 6 5
6 6 3 7 9 9 15 9 10 9 9 15 15 10 4 4 2 2 9 10 0 4 2 1 2 2 3 1 1 2 3 1 2 1 3 4 1 3 8 8 9 9 7 8 11 15 11 10 8 7 7 5 6 4
6 6 4 6 9 9 14 8 11 12 15 8 4 3 2 2 5 6 5 4 4 3 2 2 2 3 3 1 0 2 2 2 0 6 2 3 5 4 6 9 7 6 9 14 15 7 7 7 7 5 5 3 5 4
5 6 4 5 7 9 7 10 11 9 3 3 2 2 1 2 2 2 1 1 1 2 2 4 4 2 2 3 2 2 2 1 0 6 5 2 3 2 7 12 9 12 14 12 11 8 7 8 7 7 6 5 5 3
6 8 1 4 6 8 5 3 4 2 0 2 4 4 2 1 2 3 3 1 3 5 3 4 6 5 3 3 4 2 1 2 4 2 2 3 4 6 12 14 12 13 14 12 11 10 8 8 7 6 5 5 3 2
6 7 4 4 6 6 7 9 9 6 3 2 3 3 2 1 3 6 6 3 3 4 4 3 2 3 3 5 3 3 2 4 2 2 3 4 4 5 10 13 12 12 14 13 11 9 9 7 7 5 5 3 2 2
6 6 6 5 4 3 7 6 7 3 2 2 2 3 4 4 5 5 4 4 5 3 2 4 2 3 2 3 2 2 3 2 2 2 5 4 7 8 6 10 13 12 12 12 11 9 8 7 6 6 4 3 2 1
7 7 8 7 4 2 2 4 1 1 1 3 3 4 5 5 4 4 2 4 4 2 4 4 4 4 1 2 1 1 1 3 4 4 3 4 7 7 9 8 11 12 10 9 10 8 7 7 6 4 2 1 1 2
8 7 4 4 3 3 3 1 1 1 2 2 3 2 2 3 2 3 4 3 4 3 3 4 3 3 1 2 1 4 3 4 4 3 2 6 7 5 7 8 9 10 10 9 8 6 6 6 6 4 2 2 2 2
7 1 2 2 3 5 3 0 1 3 3 3 4 3 2 3 2 2 3 0 3 4 2 3 3 3 0 1 2 3 4 4 4 2 3 3 7 8 8 12 11 11 10 9 7 6 6 6 6 4 3 2 2 3
1 5 4 3 2 3 2 3 3 3 4 3 0 2 2 3 4 3 2 3 4 2 2 2 1 2 2 2 2 3 3 4 2 2 4 5 6 7 10 12 10 11 10 8 6 6 6 6 5 3 3 2 5 5
3 4 4 2 2 1 2 3 3 2 4 3 2 1 4 3 3 4 4 4 4 2 4 3 1 3 3 1 2 2 2 2 3 2 3 4 7 8 10 11 11 10 10 8 7 5 4 6 5 3 2 1 2 3
8 7 5 4 3 1 3 3 2 0 3 3 3 1 4 4 5 4 4 2 3 3 3 1 4 2 0 1 1 2 2 1 0 4 3 3 5 11 10 9 7 7 6 6 5 5 4 3 2 3 2 2 1 2
3 2 4 1 1 2 2 3 1 3 2 0 2 2 1 3 4 4 3 3 3 3 3 4 4 2 2 1 2 2 5 3 4 4 4 3 1 8 7 4 3 4 5 5 5 4 4 4 4 4 3 2 1 2
2 1 1 2 1 2 2 2 3 3 2 3 3 2 2 2 3 3 4 2 3 5 5 4 3 4 3 2 3 3 6 2 4 5 7 8 4 5 2 4 5 5 5 6 5 5 4 4 4 4 3 2 2 3
4 1 2 1 1 3 6 2 1 2 1 2 1 2 2 2 1 2 1 4 5 5 5 4 4 6 6 2 6 6 3 3 3 6 6 4 3 6 3 3 4 4 4 3 4 4 4 5 5 4 3 2 2 3
0 1 2 2 3 3 3 2 2 1 1 1 1 2 2 1 1 3 1 3 3 1 1 5 4 4 5 3 3 6 2 3 3 4 6 6 5 5 6 4 4 6 6 6 6 4 4 4 5 4 4 3 2 2
3 5 3 4 3 2 3 3 3 1 1 2 2 2 1 2 2 1 3 4 4 1 3 2 4 5 6 3 3 7 7 1 5 5 2 4 1 3 1 2 4 8 8 8 5 6 4 4 4 4 4 5 5 1
1 3 5 4 3 3 3 2 1 1 2 2 3 3 2 3 1 2 1 3 3 3 3 3 4 8 4 3 3 1 4 4 5 5 4 5 4 4 3 5 5 2 5 9 10 9 8 6 5 7 5 6 5 4
2 4 4 4 2 3 3 1 1 3 1 1 2 2 2 1 3 2 1 1 1 2 2 3 3 5 5 1 2 2 3 4 4 2 1 3 2 2 3 4 5 6 6 8 9 12 12 10 7 7 6 4 4 5
4 4 3 2 1 3 2 2 2 2 1 2 3 2 5 6 6 4 4 3 1 2 3 3 2 2 3 3 1 3 4 4 4 4 2 3 2 2 2 2 0 3 9 10 10 9 9 9 9 8 7 6 5 4
4 4 2 4 3 2 2 2 1 1 0 3 4 3 4 2 3 3 3 3 2 1 1 2 3 3 3 3 2 2 1 1 2 1 2 3 3 4 3 3 4 3 6 6 7 10 14 11 9 8 7 5 5 5
5 4 2 2 3 1 2 1 2 1 1 3 3 2 3 1 2 1 3 3 1 2 1 1 2 2 2 1 3 4 2 1 3 4 4 4 4 2 4 4 4 5 2 5 7 6 7 6 5 5 5 4 4 5
3 3 1 1 2 1 3 3 2 2 2 1 1 2 2 3 3 2 4 4 4 3 2 1 3 2 3 3 2 3 4 3 2 2 3 3 4 4 3 3 3 3 3 4 7 10 8 6 5 7 7 7 7 6
2 2 3 2 0 1 2 1 0 1 2 1 2 2 1 1 2 2 1 4 4 4 4 3 2 3 4 3 4 4 6 4 4 3 4 2 2 3 4 2 3 3 5 3 7 10 13 11 9 8 7 8 7 7
2 2 2 2 2 2 1 1 3 2 3 3 4 6 5 4 3 2 0 1 2 3 3 3 3 4 6 8 7 6 6 5 7 6 6 5 4 3 3 4 2 2 5 3 8 10 13 13 10 8 8 8 8 7
Wind_Direction
273 283 285 291 288 289 306 308 301 291 281 282 286 283 271 283 292 105 267 231 133 179 279 328 344 27 12 58 104 281 23 346 27 58 140 288 31 322 76 338 237 141 113 59 76 238 308 156 1 141 156 63 96 66
270 268 273 289 319 320 308 304 294 279 276 277 276 263 251 273 265 125 297 311 144 128 238 252 261 231 194 176 146 325 191 223 198 79 360 283 1 6 83 262 35 331 176 171 153 199 232 46 30 55 98 115 99 94
280 297 328 333 328 315 312 311 293 267 261 266 250 235 248 257 241 173 272 294 23 56 316 27 320 316 122 146 153 126 303 218 28 174 187 237 9 111 61 273 109 295 144 101 90 53 114 94 76 89 103 104 95 89
298 329 337 327 317 316 314 321 289 287 279 239 220 217 238 237 224 193 229 288 105 115 123 284 333 318 201 140 145 160 175 7 75 82 159 195 171 151 208 205 153 215 63 114 59 84 82 60 102 113 98 106 105 85
308 12 339 323 321 322 321 323 298 268 249 222 201 212 208 211 211 231 264 328 320 126 196 276 315 259 198 165 184 138 118 106 77 358 92 237 253 81 322 59 335 327 170 151 200 195 141 131 132 124 104 105 105 118
149 355 330 329 328 326 346 334 319 256 222 220 206 202 178 195 153 86 30 326 17 24 85 324 281 280 176 173 172 145 164 143 124 157 242 272 248 108 95 114 269 314 65 151 151 140 106 115 109 105 111 111 100 96
208 280 329 332 329 338 333 325 306 246 207 224 188 154 147 138 105 133 179 239 335 352 83 318 311 270 193 124 26 69 57 172 143 239 252 208 271 88 107 174 208 136 103 88 110 114 102 187 149 129 110 118 113 97
344 302 324 329 327 331 329 320 248 216 203 160 128 115 114 100 106 57 330 339 340 82 83 202 270 345 82 117 272 164 151 49 294 212 340 114 351 72 213 238 158 145 120 111 115 73 115 124 106 104 119 125 100 91
348 337 331 343 333 341 338 298 167 153 136 126 120 126 74 35 66 262 308 314 102 123 160 51 217 251 353 230 190 12 104 78 291 171 241 102 320 219 198 183 166 163 160 164 115 120 128 122 121 111 118 114 109 88
350 352 3 357 346 6 355 111 123 128 120 108 55 66 85 282 325 325 5 17 19 338 57 207 266 266 118 14 98 62 32 206 49 251 73 124 236 256 211 172 149 146 130 123 114 118 115 114 124 120 126 123 100 96
344 339 347 8 2 14 30 43 99 103 89 65 93 78 226 264 34 39 64 96 227 297 229 232 205 228 292 115 170 132 199 241 74 267 133 277 291 208 111 102 103 95 94 82 94 93 110 127 130 126 125 98 93 132
355 331 52 25 14 28 102 41 23 56 79 170 125 108 112 95 66 112 176 229 225 236 221 184 216 192 271 131 104 263 137 39 248 285 71 285 266 131 123 119 114 110 107 102 103 107 102 101 115 114 112 107 138 208
11 10 25 25 16 37 86 83 65 45 9 23 66 96 126 161 116 186 187 199 213 220 238 195 67 137 26 36 63 82 86 238 351 40 226 226 157 138 132 124 119 119 115 113 109 102 103 104 103 112 105 121 155 44
3 354 343 341 336 17 88 56 34 9 11 49 104 133 190 178 221 205 191 196 222 248 169 127 75 109 111 61 111 61 257 43 279 245 235 189 177 154 143 129 127 133 131 123 123 122 118 110 106 102 116 144 95 72
341 325 318 293 269 314 26 105 279 344 132 221 199 199 211 232 207 201 188 67 337 12 58 44 37 83 73 124 141 60 270 258 225 238 243 175 163 151 136 129 123 134 128 126 131 130 128 124 121 117 142 132 222 270
331 314 241 217 229 264 306 243 228 256 259 252 240 273 259 80 322 51 73 59 347 19 43 45 71 57 65 146 147 214 192 223 251 237 206 136 141 138 127 117 121 133 124 123 128 129 127 125 130 159 176 213 249 330
325 277 4 226 283 274 265 163 214 236 245 239 256 227 177 106 99 76 91 25 332 62 74 62 74 201 328 88 243 209 213 221 204 139 112 125 144 134 114 118 123 121 118 122 126 127 122 109 126 148 167 231 301 316
279 318 312 304 324 298 218 199 246 238 246 244 349 262 63 125 127 91 86 24 71 86 72 151 137 38 201 233 288 305 306 314 335 130 143 142 131 116 128 124 126 127 124 125 134 130 129 131 144 175 175 272 327 15
296 315 348 1 355 256 248 222 187 263 246 245 218 131 122 124 65 99 91 63 83 97 87 38 165 207 246 200 164 258 318 357 328 351 57 89 111 107 125 120 123 129 135 145 140 150 156 154 167 175 186 78 20 310
290 279 268 290 356 315 279 269 111 139 286 281 355 88 147 159 150 112 108 90 83 67 55 189 224 204 216 256 249 257 236 355 314 103 63 34 87 114 121 133 154 142 132 126 117 112 116 113 152 174 134 142 80 343
311 219 208 351 268 199 267 305 311 221 296 353 257 93 58 82 110 142 166 165 80 166 219 219 236 263 166 211 286 259 271 194 205 183 155 120 83 120 114 143 142 134 149 140 138 161 163 182 184 183 168 188 274 332
276 205 320 215 278 261 257 260 168 276 35 256 356 87 96 143 162 200 142 120 201 219 193 186 194 152 76 10 324 327 276 341 197 126 96 117 117 114 206 168 148 171 169 160 161 175 194 180 169 173 168 218 346 349
301 301 277 251 305 37 267 11 9 231 161 256 41 97 6 43 246 63 112 203 223 219 191 147 151 115 134 59 348 338 312 264 184 134 155 161 137 159 169 165 170 179 144 152 151 151 171 163 167 169 170 129 62 326
44 318 299 295 148 256 288 250 247 261 276 135 245 81 69 178 13 63 267 273 266 5 101 174 140 105 59 56 320 298 324 228 123 113 167 165 167 177 177 167 177 197 177 141 139 137 150 162 158 171 162 134 159 271
55 300 104 287 276 273 250 201 206 246 239 81 45 118 255 61 78 200 217 288 344 18 18 350 146 117 106 106 259 294 333 246 168 143 73 117 137 38 311 92 176 157 143 131 137 152 165 156 168 177 178 160 183 298
98 241 159 224 245 201 270 180 160 100 148 210 181 192 94 91 90 270 50 326 327 356 13 55 96 95 86 134 159 269 339 346 65 80 39 55 69 103 129 137 132 210 189 156 148 162 162 171 180 184 190 189 156 115
284 252 220 239 222 266 9 47 146 110 263 342 182 121 92 117 235 192 242 304 309 294 348 26 52 97 129 128 6 1 356 46 82 103 354 47 27 69 102 112 181 207 156 162 165 166 167 172 179 189 185 177 157 141
262 268 212 257 209 166 187 216 186 132 201 257 65 147 172 193 224 201 204 232 251 6 358 358 24 71 91 104 56 14 356 9 33 23 9 355 316 315 333 317 354 157 171 173 168 160 162 166 170 177 182 179 156 151
251 270 359 270 244 288 80 54 105 275 5 90 139 212 237 252 176 154 189 162 152 114 12 2 357 30 26 13 348 231 178 105 104 90 312 301 326 313 334 339 350 26 180 149 163 163 163 163 167 167 169 162 156 159
253 179 222 178 139 234 224 105 129 27 57 162 168 10 353 29 358 60 110 120 156 196 151 57 330 10 300 316 306 320 341 357 187 167 197 233 241 303 350 14 20 16 55 148 142 110 87 106 105 106 119 129 158 156
257 303 228 170 94 161 144 133 99 86 5 10 44 133 223 299 319 272 209 170 146 125 97 296 289 290 306 294 265 270 285 293 356 279 252 244 258 271 274 313 347 30 29 135 153 159 153 149 150 150 151 158 183 182
286 325 94 57 289 229 86 79 116 216 168 181 207 169 204 207 256 265 281 140 160 184 214 208 237 282 302 292 257 251 224 248 258 259 284 304 325 312 296 311 352 3 350 205 170 169 162 158 155 159 161 169 185 198
47 31 106 109 39 347 203 157 238 234 183 215 202 184 190 195 234 182 211 96 161 171 168 185 241 257 260 261 268 264 248 241 251 234 236 243 230 252 306 318 290 319 326 212 168 167 156 146 151 160 167 172 183 202